Южно-Енисейский

Россия / Красноярский край     58°44′19″N   94°36′24″E
темп.,
°C
ветер,
м/с
пор.,
м/с
влажн.,
%
обл.,
%
осадки,
мм/ч
давл.,
гПа
погр.,
м
17 мая, пн
пн1701:00−2с2269100 0.0 101532
04:00−2с2165100 0.0 101517
07:00+1с134786 0.0 1015377
10:00+5ссз34325 0.0 10141445
13:00+8сз35285 0.0 10132065
16:00+9сз45265 0.0 10122387
19:00+8ссз35355 0.0 10121631
22:00+1с22545 0.0 101310
18 мая, вт
вт1801:00−1ссв22595 0.0 101311
04:00−2с116057 0.0 101410
07:00+3св1241100 0.0 1012261
10:00+7всв12309 0.0 10101455
13:00+11вюв1125100 0.0 10071995
16:00+11всв2224100 0.0 10052112
19:00+10всв2329100 0.0 1003968
22:00+3ссв3951100 0.0 1006171
19 мая, ср
ср1901:00+1св225567 0.0 100646
04:00−1ссв115910 0.0 100810
07:00+4всв124198 0.0 1007263
10:00+9вюв2231100 0.0 10041478
13:00+10ю2332100 0.0 10022296
16:00+8с4355100 0.3 1001937
19:00+2сз2498100 8.8 1003216
22:00+1сз4898100 3.9 1002366
20 мая, чт
чт2001:000з4109690 5.1 1001624
04:00−2юз499498 0.2 1002498
07:00−1ююз4685100 0.3 1004682
10:000ююв2490100 0.5 1006672
13:00+2ю2281100 1.6 1007917
16:00+5ююз116783 1.0 10081183
19:00+2ссв3492100 1.6 1010386
22:00+1с12100100 1.3 101189
21 мая, пт
пт2101:000ссз2797100 1.4 1011222
04:00−3с39935 0.0 1013179
07:00+1с38825 0.0 1013369
10:00+5с467069 0.0 10131337
13:00+5с4670100 0.1 10141280
16:00+6ссз366698 0.1 10151277
19:00+6ссз36725 0.1 1015916
22:000зсз25915 0.0 101676